Location: Tel Aviv
(32.0670°N, 34.7670°E)
Time: 02:30:20
(UTC+03:00)

Tiros 1 - Pass Details

Date: 22 January 2022
Orbit: 629 x 663 km, 48.4° (Epoch: 26 May)

Event Time Altitude Azimuth Distance (km) Brightness Sun altitude
Rises 22:08:02 0° 222° (SW) 2,979 - -63.4°
Reaches altitude 10° 22:10:23 10° 220° (SW) 2,070 - -63.9°
Maximum altitude 22:15:09 70° 138° (SE) 702 - -64.8°
Drops below altitude 10° 22:19:55 10° 54° (NE) 2,075 - -65.7°
Sets 22:22:16 0° 53° (NE) 2,986 - -66.2°
